Weather History for KMFE - October, 2012

Change the Weather History Date:

Tuesday, October 9, 2012

  Actual Average Record
Temperature  
Mean Temperature 78 °F 79 °F  
Max Temperature 94 °F 89 °F 99 °F (1962)
Min Temperature 62 °F 68 °F 44 °F (2000)
Degree Days  
Heating Degree Days 0 0  
Month to date heating degree days 0 0  
Since 1 July heating degree days 0 0  
Cooling Degree Days 13 14  
Month to date cooling degree days 121 130  
Year to date cooling degree days 4540 3929  
Growing Degree Days 28 (Base 50)    
Moisture  
Dew Point 62 °F    
Average Humidity 60    
Maximum Humidity 79    
Minimum Humidity 41    
Precipitation  
Precipitation 0.00 in 0.06 in 0.30 in (1971)
Month to date precipitation T 0.70  
Year to date precipitation 15.24 18.74  
Sea Level Pressure  
Sea Level Pressure 30.00 in    
Wind  
Wind Speed 7 mph (SE)    
Max Wind Speed 20 mph    
Max Gust Speed 26 mph    
Visibility 10 miles    
Events      
T = Trace of Precipitation, MM = Missing Value Source: NWS Daily Summary

Daily Weather History Graph

Daily Weather History Graph

Search for Another Location

Airport or City:

Trip Planner

Search our weather history database for the weather conditions in past years. The results will help you decide how hot, cold, wet, or windy it might be!

Date:

Astronomy

Oct. 09, 2012 Rise Set
Actual Time 7:29 AM CDT 7:10 PM CDT
Civil Twilight 7:06 AM CDT 7:33 PM CDT
Nautical Twilight 6:39 AM CDT 8:00 PM CDT
Astronomical Twilight 6:12 AM CDT 8:27 PM CDT
Moon 1:40 AM CDT (10/9) 3:08 PM CDT (10/9)
Length of Visible Light 12h 27m
Length of Day
11h 41m
Last Quarter, 36% of the Moon is Illuminated
Oct 9
Last Quarter
Oct 15
New
Oct 21
First Quarter
Oct 29
Full
Nov 6
Last Quarter

Hourly Weather History & Observations

Time (CDT) Temp. Heat Index Dew Point Humidity Pressure Visibility Wind Dir Wind Speed Gust Speed Precip Events Conditions
12:53 AM 66.9 °F - 53.1 °F 61% 30.08 in 10.0 mi West 3.5 mph - N/A   Overcast
1:53 AM 66.9 °F - 53.1 °F 61% 30.06 in 10.0 mi West 3.5 mph - N/A   Overcast
2:53 AM 64.4 °F - 53.6 °F 68% 30.05 in 10.0 mi Calm Calm - N/A   Mostly Cloudy
3:29 AM 64.4 °F - 53.6 °F 68% 30.04 in 10.0 mi Calm Calm - N/A   Mostly Cloudy
3:53 AM 64.9 °F - 53.1 °F 65% 30.03 in 10.0 mi Calm Calm - N/A   Scattered Clouds
4:53 AM 64.0 °F - 53.1 °F 67% 30.03 in 10.0 mi Calm Calm - N/A   Clear
5:53 AM 64.0 °F - 54.0 °F 70% 30.02 in 10.0 mi Calm Calm - N/A   Scattered Clouds
6:53 AM 62.1 °F - 54.0 °F 75% 30.03 in 10.0 mi Calm Calm - N/A   Clear
7:53 AM 63.0 °F - 54.0 °F 72% 30.04 in 10.0 mi Calm Calm - N/A   Clear
8:46 AM 68.0 °F - 53.6 °F 60% 30.05 in 10.0 mi Calm Calm - N/A   Mostly Cloudy
8:53 AM 68.0 °F - 54.0 °F 61% 30.05 in 10.0 mi Calm Calm - N/A   Mostly Cloudy
9:30 AM 69.8 °F - 53.6 °F 56% 30.07 in 10.0 mi Calm Calm - N/A   Overcast
9:53 AM 72.0 °F - 55.0 °F 55% 30.06 in 10.0 mi Calm Calm - N/A   Overcast
10:53 AM 75.9 °F - 57.9 °F 54% 30.06 in 10.0 mi East 3.5 mph - N/A   Scattered Clouds
11:53 AM 82.0 °F 83.1 °F 63.0 °F 52% 30.03 in 10.0 mi SE 9.2 mph - N/A   Clear
12:53 PM 87.1 °F 88.9 °F 64.9 °F 48% 29.99 in 10.0 mi SE 11.5 mph 17.3 mph N/A   Clear
1:53 PM 88.0 °F 89.6 °F 64.9 °F 46% 29.96 in 10.0 mi South 10.4 mph 20.7 mph N/A   Clear
2:53 PM 91.0 °F 93.0 °F 64.9 °F 42% 29.93 in 10.0 mi South 11.5 mph 19.6 mph N/A   Clear
3:53 PM 93.0 °F 95.9 °F 66.0 °F 41% 29.90 in 10.0 mi ESE 13.8 mph 19.6 mph N/A   Partly Cloudy
4:53 PM 91.9 °F 94.1 °F 64.9 °F 41% 29.89 in 10.0 mi SE 9.2 mph - N/A   Mostly Cloudy
5:53 PM 89.1 °F 92.1 °F 66.9 °F 48% 29.89 in 10.0 mi ESE 15.0 mph - N/A   Partly Cloudy
6:53 PM 86.0 °F 90.1 °F 69.1 °F 57% 29.91 in 10.0 mi ESE 16.1 mph - N/A   Clear
7:53 PM 82.9 °F 87.5 °F 71.1 °F 67% 29.93 in 10.0 mi ESE 12.7 mph 19.6 mph N/A   Clear
8:53 PM 81.0 °F 85.2 °F 72.0 °F 74% 29.95 in 10.0 mi East 12.7 mph - N/A   Scattered Clouds
9:53 PM 79.0 °F - 72.0 °F 79% 29.96 in 10.0 mi East 11.5 mph - N/A   Clear
10:23 PM 78.8 °F - 71.6 °F 78% 29.98 in 10.0 mi East 8.1 mph - N/A   Mostly Cloudy
10:53 PM 79.0 °F - 72.0 °F 79% 29.98 in 10.0 mi ESE 8.1 mph - N/A   Overcast
11:31 PM 78.8 °F - 73.4 °F 83% 29.99 in 10.0 mi ESE 8.1 mph - N/A   Mostly Cloudy
11:53 PM 79.0 °F - 72.0 °F 79% 29.99 in 10.0 mi ESE 6.9 mph - N/A   Scattered Clouds